timestamp,surface_pressure_avg,surface_temp_avg,battery_voltage,lat,long
2021-02-08 00:09:01+00:00,241.0965,2.3,12.73,47.84626,-54.09684
2021-02-08 00:19:01+00:00,240.7381,2.3,12.73,47.84626,-54.09684
2021-02-08 00:29:01+00:00,242.6514,2.3,12.73,47.84626,-54.09684
2021-02-08 00:39:01+00:00,244.2464,2.3,12.73,47.84626,-54.09684
2021-02-08 00:49:01+00:00,239.4081,2.3,12.73,47.84626,-54.09684
2021-02-08 00:59:01+00:00,235.8831,2.3,12.73,47.84626,-54.09684
2021-02-08 01:09:01+00:00,236.4181,2.3,12.73,47.84626,-54.09684
2021-02-08 01:19:01+00:00,239.0064,2.3,12.73,47.84626,-54.09684
2021-02-08 01:29:01+00:00,235.7664,2.3,12.73,47.84626,-54.09684
2021-02-08 01:39:01+00:00,230.9881,2.3,12.73,47.84626,-54.09684
2021-02-08 01:49:01+00:00,231.1781,2.3,12.73,47.84626,-54.09684
2021-02-08 01:59:01+00:00,233.5565,2.3,12.73,47.84626,-54.09684
2021-02-08 02:09:01+00:00,232.4314,2.3,12.73,47.84626,-54.09684
2021-02-08 02:19:01+00:00,225.1248,2.3,12.65,47.84626,-54.09684
2021-02-08 02:29:01+00:00,217.6581,2.3,12.65,47.84626,-54.09684
2021-02-08 02:39:01+00:00,215.2381,2.3,12.65,47.84626,-54.09684
2021-02-08 02:49:01+00:00,213.1814,2.3,12.65,47.84626,-54.09684
2021-02-08 02:59:01+00:00,210.1581,2.3,12.65,47.84626,-54.09684
2021-02-08 03:09:01+00:00,208.5948,2.3,12.65,47.84626,-54.09684
2021-02-08 03:19:01+00:00,211.6648,2.3,12.65,47.84626,-54.09684
2021-02-08 03:29:01+00:00,218.7448,2.3,12.65,47.84626,-54.09684
2021-02-08 03:39:01+00:00,222.6381,2.2,12.65,47.84626,-54.09684
2021-02-08 03:49:01+00:00,219.2031,2.0,12.65,47.84626,-54.09684
2021-02-08 03:59:01+00:00,219.3864,1.88,12.65,47.84626,-54.09684
2021-02-08 04:09:01+00:00,225.4481,1.9,12.65,47.84626,-54.09684
2021-02-08 04:19:01+00:00,227.2397,1.93,12.65,47.84626,-54.09684
2021-02-08 04:29:01+00:00,224.5364,1.99,12.65,47.84626,-54.09684
2021-02-08 04:39:01+00:00,230.0931,1.99,12.65,47.84626,-54.09684
2021-02-08 04:49:01+00:00,240.3031,2.0,12.65,47.84626,-54.09684
2021-02-08 04:59:01+00:00,247.8414,2.07,12.65,47.84626,-54.09684
2021-02-08 05:09:01+00:00,259.0731,2.1,12.65,47.84626,-54.09684
2021-02-08 05:19:01+00:00,271.8881,2.11,12.65,47.84626,-54.09684
2021-02-08 05:29:01+00:00,285.1848,2.16,12.65,47.84626,-54.09684
2021-02-08 05:39:01+00:00,290.743,2.17,12.65,47.84626,-54.09684
2021-02-08 05:49:01+00:00,296.6047,2.1,12.65,47.84626,-54.09684
2021-02-08 05:59:01+00:00,308.5714,2.09,12.65,47.84626,-54.09684
2021-02-08 06:09:01+00:00,316.1013,2.1,12.65,47.84626,-54.09684
2021-02-08 06:19:01+00:00,319.9863,2.1,12.65,47.84626,-54.09684
2021-02-08 06:29:01+00:00,326.4913,2.1,12.65,47.84626,-54.09684
2021-02-08 06:39:01+00:00,338.603,2.1,12.65,47.84626,-54.09684
2021-02-08 06:49:01+00:00,343.6896,2.1,12.65,47.84626,-54.09684
2021-02-08 06:59:01+00:00,348.5696,2.1,12.65,47.84626,-54.09684
2021-02-08 07:09:01+00:00,358.1713,2.1,12.65,47.84626,-54.09684
2021-02-08 07:19:01+00:00,360.2163,2.1,12.65,47.84626,-54.09684
2021-02-08 07:29:01+00:00,356.5529,2.1,12.65,47.84626,-54.09684
2021-02-08 07:39:01+00:00,354.7613,2.1,12.65,47.84626,-54.09684
2021-02-08 07:49:01+00:00,370.1763,2.12,12.65,47.84626,-54.09684
2021-02-08 07:59:01+00:00,377.0696,2.18,12.65,47.84626,-54.09684
2021-02-08 08:09:01+00:00,374.2513,2.1,12.65,47.84626,-54.09684
2021-02-08 08:19:01+00:00,369.718,2.12,12.65,47.84626,-54.09684
2021-02-08 08:29:01+00:00,370.1245,2.2,12.65,47.84626,-54.09684
2021-02-08 08:39:01+00:00,369.1678,2.2,12.65,47.84626,-54.09684
2021-02-08 08:49:01+00:00,364.3329,2.2,12.65,47.84626,-54.09684
2021-02-08 08:59:01+00:00,370.13800000000003,2.2,12.65,47.84626,-54.09684
2021-02-08 09:09:01+00:00,381.9028,2.22,12.65,47.84626,-54.09684
2021-02-08 09:19:01+00:00,380.5812,2.23,12.65,47.84626,-54.09684
2021-02-08 09:29:01+00:00,371.2728,2.25,12.65,47.84626,-54.09684
2021-02-08 09:39:01+00:00,364.0979,2.26,12.65,47.84626,-54.09684
2021-02-08 09:49:01+00:00,359.4695,2.2,12.65,47.84626,-54.09684
2021-02-08 09:59:01+00:00,363.0913,2.2,12.65,47.84626,-54.09684
2021-02-08 10:09:01+00:00,364.9496,2.2,12.65,47.84626,-54.09684
2021-02-08 10:19:01+00:00,361.1279,2.2,12.65,47.84626,-54.09684
2021-02-08 10:29:01+00:00,357.4846,2.19,12.65,47.84626,-54.09684
2021-02-08 10:39:01+00:00,360.0178,2.19,12.65,47.84626,-54.09684
2021-02-08 10:49:01+00:00,343.2530000000001,2.2,12.65,47.84626,-54.09684
2021-02-08 10:59:01+00:00,326.9163,2.19,12.65,47.84626,-54.09684
2021-02-08 11:09:01+00:00,341.543,2.2,12.65,47.84626,-54.09684
2021-02-08 11:19:01+00:00,343.9946,2.2,12.65,47.84626,-54.09684
2021-02-08 11:29:01+00:00,316.488,2.1,12.65,47.84626,-54.09684
2021-02-08 11:39:01+00:00,308.948,2.14,12.65,47.84626,-54.09684
2021-02-08 11:49:01+00:00,329.4664,2.18,12.65,47.84626,-54.09684
2021-02-08 11:59:01+00:00,338.358,2.2,12.65,47.84626,-54.09684
2021-02-08 12:09:01+00:00,315.2047,2.2,12.65,47.84626,-54.09684
2021-02-08 12:19:01+00:00,300.8781,2.2,12.65,47.84626,-54.09684
2021-02-08 12:29:01+00:00,303.1231,2.18,12.65,47.84626,-54.09684
2021-02-08 12:39:01+00:00,293.6448,2.13,12.65,47.84626,-54.09684
2021-02-08 12:49:01+00:00,289.2447,2.1,12.65,47.84626,-54.09684
2021-02-08 12:59:01+00:00,300.1414,2.1,12.65,47.84626,-54.09684
2021-02-08 13:09:01+00:00,308.4896,2.0,12.65,47.84626,-54.09684
2021-02-08 13:19:01+00:00,290.3464,2.0,12.65,47.84626,-54.09684
2021-02-08 13:29:01+00:00,271.2697,1.8,12.65,47.84626,-54.09684
2021-02-08 13:39:01+00:00,273.1647,1.78,12.65,47.84626,-54.09684
2021-02-08 13:49:01+00:00,291.7297,1.7,12.65,47.84626,-54.09684
2021-02-08 13:59:01+00:00,313.9097,1.72,12.65,47.84626,-54.09684
2021-02-08 14:09:01+00:00,304.653,1.67,12.65,47.84626,-54.09684
2021-02-08 14:19:01+00:00,293.3313,1.8,12.65,47.84626,-54.09684
2021-02-08 14:29:01+00:00,285.3081,1.6,12.65,47.84626,-54.09684
2021-02-08 14:39:01+00:00,284.7414,1.43,12.65,47.84626,-54.09684
2021-02-08 14:49:01+00:00,280.2347,1.6,12.65,47.84626,-54.09684
2021-02-08 14:59:01+00:00,270.5197,0.6,12.65,47.84626,-54.09684
2021-02-08 15:09:01+00:00,266.0997,1.25,12.65,47.84626,-54.09684
2021-02-08 15:19:01+00:00,264.9714,1.29,12.81,47.84626,-54.09684
2021-02-08 15:29:01+00:00,264.4931,1.67,12.81,47.84626,-54.09684
2021-02-08 15:39:01+00:00,259.5647,1.36,12.81,47.84626,-54.09684
2021-02-08 15:49:01+00:00,255.0215,1.58,12.81,47.84626,-54.09684
2021-02-08 15:59:01+00:00,264.9414,1.2,12.81,47.84626,-54.09684
2021-02-08 16:09:01+00:00,268.5064,0.02,12.81,47.84626,-54.09684
2021-02-08 16:19:01+00:00,268.8064,0.1,12.81,47.84626,-54.09684
2021-02-08 16:29:01+00:00,262.7214,0.5,12.81,47.84626,-54.09684
2021-02-08 16:39:01+00:00,258.7197,0.63,12.81,47.84626,-54.09684
2021-02-08 16:49:01+00:00,252.343,1.3,12.81,47.84626,-54.09684
2021-02-08 16:59:01+00:00,257.2714,1.3,12.81,47.84626,-54.09684
2021-02-08 17:09:01+00:00,260.7731,1.29,12.81,47.84626,-54.09684
2021-02-08 17:19:01+00:00,258.8564,1.02,12.81,47.84626,-54.09684
2021-02-08 17:29:01+00:00,252.7564,1.55,12.81,47.84626,-54.09684
2021-02-08 17:39:01+00:00,254.973,1.7,12.81,47.84626,-54.09684
2021-02-08 17:49:01+00:00,263.3914,1.5,12.81,47.84626,-54.09684
2021-02-08 17:59:01+00:00,272.9364,0.63,12.81,47.84626,-54.09684
2021-02-08 18:09:01+00:00,282.8147,1.37,12.81,47.84626,-54.09684
2021-02-08 18:19:01+00:00,284.8347,1.7,13.21,47.84626,-54.09684
2021-02-08 18:29:01+00:00,281.5431,1.5,13.21,47.84626,-54.09684
2021-02-08 18:39:01+00:00,286.7347,1.46,13.21,47.84626,-54.09684
2021-02-08 18:49:01+00:00,294.998,1.5,13.21,47.84626,-54.09684
2021-02-08 18:59:01+00:00,296.89799999999997,1.5,13.21,47.84626,-54.09684
2021-02-08 19:09:01+00:00,291.39799999999997,1.83,13.21,47.84626,-54.09684
2021-02-08 19:19:01+00:00,297.6147,1.89,13.05,47.84626,-54.09684
2021-02-08 19:29:01+00:00,304.4864,1.9,13.05,47.84626,-54.09684
2021-02-08 19:39:01+00:00,314.0147,1.86,13.05,47.84626,-54.09684
2021-02-08 19:49:01+00:00,320.178,1.87,13.05,47.84626,-54.09684
2021-02-08 19:59:01+00:00,327.93300000000005,1.89,13.05,47.84626,-54.09684
2021-02-08 20:09:01+00:00,334.733,1.9,13.05,47.84626,-54.09684
2021-02-08 20:19:01+00:00,338.343,1.94,12.81,47.84626,-54.09684
2021-02-08 20:29:01+00:00,331.9946,1.98,12.81,47.84626,-54.09684
2021-02-08 20:39:01+00:00,328.1313,1.99,12.81,47.84626,-54.09684
2021-02-08 20:49:01+00:00,329.0797,2.0,12.81,47.84626,-54.09684
2021-02-08 20:59:01+00:00,321.3113,1.9,12.81,47.84626,-54.09684
2021-02-08 21:09:01+00:00,311.3163,1.7,12.81,47.84626,-54.09684
2021-02-08 21:19:01+00:00,310.6097,1.73,12.65,47.84626,-54.09684
2021-02-08 21:29:01+00:00,308.5063,1.79,12.65,47.84626,-54.09684
2021-02-08 21:39:01+00:00,298.988,1.79,12.65,47.84626,-54.09684
2021-02-08 21:49:01+00:00,293.7247,1.84,12.65,47.84626,-54.09684
2021-02-08 21:59:01+00:00,302.5963,1.89,12.65,47.84626,-54.09684
2021-02-08 22:09:01+00:00,309.983,2.0,12.65,47.84626,-54.09684
2021-02-08 22:19:01+00:00,307.4864,2.0,12.65,47.84626,-54.09684
2021-02-08 22:29:01+00:00,303.138,2.02,12.65,47.84626,-54.09684
2021-02-08 22:39:01+00:00,300.1663,2.08,12.65,47.84626,-54.09684
2021-02-08 22:49:01+00:00,291.6514,2.09,12.65,47.84626,-54.09684
2021-02-08 22:59:01+00:00,281.0547,2.09,12.65,47.84626,-54.09684
2021-02-08 23:09:01+00:00,280.3763,1.95,12.65,47.84626,-54.09684
2021-02-08 23:19:01+00:00,284.0547,2.1,12.65,47.84626,-54.09684
2021-02-08 23:29:01+00:00,271.8097,1.81,12.65,47.84626,-54.09684
2021-02-08 23:39:01+00:00,265.378,1.9,12.65,47.84626,-54.09684
2021-02-08 23:49:01+00:00,265.9348,1.9,12.65,47.84626,-54.09684
2021-02-08 23:59:01+00:00,261.5997,1.9,12.65,47.84626,-54.09684
